{"data":{"norad_id":58680,"epoch":"2026-05-24T23:37:33.729024Z","epoch_age_seconds":79457,"freshness":"FRESH","line1":"1 58680U 23211P   26144.98441816  .00005891  00000+0  22334-3 0  9993","line2":"2 58680  42.9998  14.3410 0001313 270.5992  89.4709 15.27592247135319","mean_motion":15.27592247,"eccentricity":0.0001313,"inclination_deg":42.9998,"raan_deg":14.341,"arg_perigee_deg":270.5992,"mean_anomaly_deg":89.4709,"bstar":0.00022334,"rev_number":13531,"period_min":94.265992959049,"perigee_km":482.1115554414,"apogee_km":483.91329328024,"semimajor_km":6861.1494243608,"source":"CELESTRAK","updated_at":"2026-05-25T13:38:18.712643Z"}}